Temp
-16 -16 -16 -16 -16 -17 -17 -17 -17 -17 -17 -17 -17 -17 -16 -16 -16 -16 -16 -16 -16 -15 -15 -15 -15 -14 -14 -14 -13 -13 -14 -13 -13 -13 -13 -13 -14 -13 -14 -14 -14 -14 -14 -13
-16 -16 -16 -16 -17 -17 -17 -17 -17 -17 -17 -18 -17 -17 -17 -16 -16 -16 -16 -16 -16 -16 -15 -15 -14 -15 -14 -14 -14 -13 -13 -14 -14 -13 -13 -13 -14 -14 -13 -13 -13 -13 -13 -13
-16 -16 -17 -18 -18 -18 -18 -18 -18 -18 -18 -18 -18 -17 -17 -17 -16 -16 -16 -16 -16 -16 -16 -16 -16 -14 -14 -14 -13 -13 -13 -14 -14 -14 -14 -13 -13 -13 -13 -13 -13 -13 -13 -13
-16 -17 -18 -19 -19 -19 -19 -19 -19 -19 -19 -19 -18 -18 -17 -17 -16 -16 -16 -16 -16 -16 -16 -16 -16 -15 -14 -14 -13 -13 -14 -13 -13 -14 -14 -14 -14 -13 -13 -13 -13 -13 -13 -13
-17 -17 -18 -18 -18 -19 -19 -19 -19 -19 -19 -19 -18 -18 -18 -17 -17 -16 -16 -16 -16 -16 -16 -16 -15 -15 -15 -15 -14 -14 -13 -13 -13 -13 -13 -13 -14 -14 -14 -14 -13 -13 -13 -13
-17 -17 -18 -18 -18 -19 -19 -19 -19 -19 -19 -19 -19 -18 -18 -17 -17 -17 -16 -16 -16 -16 -16 -15 -15 -15 -15 -15 -15 -14 -14 -14 -13 -13 -13 -13 -14 -14 -14 -14 -14 -14 -13 -13
-17 -17 -18 -18 -18 -18 -19 -19 -19 -19 -19 -19 -19 -19 -18 -18 -17 -17 -17 -17 -16 -16 -16 -15 -15 -15 -15 -15 -15 -15 -15 -15 -14 -14 -14 -13 -13 -13 -13 -14 -14 -14 -13 -13
-17 -17 -18 -18 -18 -18 -18 -19 -19 -19 -19 -19 -19 -19 -18 -18 -18 -18 -17 -17 -17 -16 -16 -16 -16 -15 -15 -15 -15 -15 -15 -15 -15 -14 -14 -14 -14 -14 -13 -13 -13 -14 -14 -13
-17 -17 -17 -18 -18 -18 -18 -18 -19 -19 -19 -18 -18 -18 -18 -18 -18 -18 -17 -17 -17 -16 -16 -16 -16 -16 -15 -15 -15 -15 -14 -15 -15 -15 -14 -14 -14 -14 -14 -13 -13 -13 -13 -14
-17 -17 -17 -17 -17 -18 -18 -18 -18 -18 -19 -19 -18 -18 -18 -18 -18 -17 -17 -17 -17 -17 -17 -17 -17 -17 -16 -16 -15 -15 -15 -15 -15 -15 -15 -15 -15 -14 -14 -14 -14 -14 -14 -14
-17 -17 -17 -17 -17 -18 -18 -18 -18 -18 -18 -18 -18 -18 -18 -18 -18 -18 -17 -17 -17 -17 -16 -16 -16 -16 -16 -16 -16 -16 -16 -16 -16 -15 -15 -15 -15 -15 -15 -14 -14 -14 -14 -14
-17 -17 -17 -17 -18 -18 -18 -18 -18 -18 -18 -18 -18 -18 -18 -18 -18 -18 -18 -17 -17 -18 -18 -18 -16 -15 -15 -16 -16 -17 -17 -17 -17 -16 -16 -16 -16 -15 -15 -15 -14 -14 -14 -14
-17 -17 -17 -17 -18 -19 -19 -18 -18 -18 -18 -18 -18 -18 -18 -18 -18 -17 -17 -17 -16 -17 -17 -16 -16 -15 -16 -16 -17 -17 -17 -18 -18 -17 -17 -17 -17 -17 -16 -15 -15 -15 -14 -14
-17 -18 -18 -18 -18 -20 -20 -19 -18 -18 -18 -18 -18 -18 -18 -18 -17 -17 -17 -16 -16 -16 -16 -16 -15 -16 -15 -16 -17 -17 -19 -19 -19 -19 -18 -17 -18 -17 -17 -16 -16 -16 -15 -15
-17 -18 -18 -18 -19 -21 -20 -20 -19 -18 -18 -18 -18 -18 -18 -18 -18 -18 -17 -17 -17 -17 -17 -16 -15 -16 -16 -17 -17 -18 -20 -22 -22 -21 -20 -19 -18 -18 -17 -17 -17 -16 -16 -15
-16 -18 -18 -18 -19 -20 -20 -20 -20 -19 -18 -18 -18 -18 -19 -18 -18 -18 -17 -16 -17 -17 -17 -16 -16 -15 -16 -17 -18 -20 -21 -22 -22 -21 -21 -20 -19 -18 -17 -17 -17 -17 -16 -16
-16 -17 -18 -18 -19 -20 -20 -20 -20 -19 -19 -19 -19 -19 -18 -18 -17 -17 -18 -19 -18 -18 -18 -17 -17 -17 -17 -18 -19 -20 -21 -22 -22 -21 -20 -20 -20 -19 -17 -17 -17 -17 -16 -17
-16 -17 -18 -18 -18 -19 -20 -20 -20 -19 -19 -19 -19 -19 -19 -18 -18 -19 -19 -19 -19 -19 -19 -19 -19 -18 -18 -19 -20 -20 -21 -21 -21 -21 -21 -20 -19 -18 -17 -17 -17 -16 -16 -17
-16 -16 -17 -18 -18 -18 -19 -19 -19 -19 -19 -19 -19 -19 -19 -19 -19 -19 -19 -20 -19 -19 -19 -19 -19 -19 -19 -19 -20 -20 -19 -20 -21 -20 -20 -20 -19 -18 -17 -17 -17 -17 -17 -17
-16 -16 -16 -17 -18 -18 -19 -19 -19 -19 -19 -20 -20 -19 -19 -19 -19 -20 -20 -20 -20 -20 -19 -19 -19 -19 -19 -20 -20 -20 -19 -19 -19 -19 -19 -19 -19 -18 -18 -18 -17 -18 -18 -18
-16 -16 -16 -17 -17 -18 -19 -18 -18 -19 -20 -20 -20 -20 -20 -20 -20 -20 -20 -20 -20 -20 -20 -20 -20 -20 -20 -20 -20 -20 -20 -20 -20 -21 -21 -20 -20 -19 -19 -19 -20 -20 -20 -20
-16 -16 -16 -16 -17 -17 -18 -18 -18 -18 -19 -21 -21 -21 -21 -21 -21 -21 -21 -21 -20 -20 -21 -21 -21 -20 -20 -20 -20 -20 -20 -20 -20 -20 -20 -20 -20 -20 -20 -20 -20 -20 -19 -19
-16 -16 -16 -16 -17 -17 -17 -18 -18 -19 -18 -19 -20 -20 -20 -20 -21 -21 -21 -21 -21 -21 -21 -21 -21 -21 -21 -20 -20 -20 -20 -20 -20 -20 -20 -20 -20 -20 -20 -20 -20 -20 -20 -20
-16 -16 -17 -16 -17 -17 -17 -18 -19 -18 -19 -19 -19 -19 -19 -19 -20 -21 -20 -20 -20 -20 -20 -20 -20 -20 -20 -20 -20 -20 -20 -20 -20 -20 -20 -20 -20 -20 -20 -20 -20 -20 -20 -21
-16 -16 -17 -17 -17 -17 -17 -17 -17 -18 -19 -19 -19 -19 -19 -19 -19 -19 -20 -20 -20 -20 -20 -20 -19 -19 -19 -20 -20 -20 -20 -20 -20 -20 -20 -20 -20 -20 -20 -21 -21 -21 -21 -21
-17 -16 -16 -17 -17 -17 -17 -17 -17 -17 -18 -19 -19 -19 -19 -19 -20 -20 -20 -20 -20 -19 -19 -19 -19 -19 -20 -20 -20 -20 -20 -20 -20 -20 -21 -21 -21 -21 -21 -21 -21 -21 -21 -21
Height
5717 5713 5709 5705 5701 5698 5696 5696 5695 5697 5699 5699 5699 5701 5704 5709 5713 5715 5717 5718 5721 5728 5738 5742 5746 5750 5756 5761 5765 5768 5772 5775 5778 5782 5785 5790 5794 5797 5799 5802 5805 5806 5808 5811
5716 5710 5705 5700 5697 5694 5692 5692 5692 5693 5694 5694 5694 5697 5699 5702 5706 5709 5711 5714 5717 5723 5728 5732 5736 5741 5747 5749 5754 5760 5764 5767 5772 5776 5776 5779 5783 5787 5791 5792 5795 5797 5801 5804
5713 5706 5698 5694 5692 5691 5689 5688 5688 5688 5689 5690 5690 5692 5696 5698 5700 5702 5705 5708 5711 5715 5719 5724 5728 5734 5738 5743 5747 5750 5753 5757 5760 5765 5768 5771 5775 5779 5783 5786 5789 5792 5793 5794
5711 5702 5696 5695 5694 5691 5688 5686 5684 5684 5684 5686 5687 5690 5691 5693 5696 5698 5700 5702 5704 5708 5712 5717 5721 5724 5730 5734 5739 5743 5747 5749 5751 5755 5759 5763 5769 5771 5775 5778 5779 5781 5784 5787
5710 5702 5697 5696 5693 5690 5687 5684 5682 5681 5680 5681 5683 5686 5688 5688 5690 5693 5694 5696 5698 5700 5704 5708 5712 5716 5719 5724 5728 5734 5738 5741 5746 5748 5751 5754 5758 5762 5765 5769 5771 5773 5775 5778
5709 5703 5698 5696 5692 5689 5684 5681 5679 5678 5677 5678 5679 5681 5683 5685 5686 5687 5689 5691 5693 5695 5697 5700 5704 5708 5711 5714 5718 5723 5727 5730 5733 5737 5741 5744 5748 5752 5755 5758 5761 5764 5765 5768
5709 5702 5697 5694 5692 5689 5686 5682 5680 5678 5676 5677 5678 5679 5679 5680 5682 5683 5684 5686 5688 5689 5690 5692 5695 5698 5702 5706 5709 5713 5716 5719 5723 5726 5730 5735 5738 5741 5745 5749 5752 5754 5757 5760
5707 5701 5696 5694 5693 5691 5688 5685 5683 5680 5679 5678 5678 5678 5678 5678 5678 5678 5678 5679 5681 5682 5682 5683 5685 5688 5692 5695 5699 5704 5708 5711 5713 5717 5721 5724 5728 5732 5736 5739 5743 5746 5750 5751
5707 5702 5696 5693 5692 5691 5687 5683 5681 5678 5677 5676 5676 5676 5675 5675 5675 5674 5673 5673 5673 5674 5675 5675 5674 5676 5678 5682 5685 5690 5695 5699 5702 5706 5710 5713 5717 5721 5725 5730 5735 5737 5740 5743
5707 5702 5696 5692 5691 5689 5687 5685 5681 5678 5676 5674 5673 5672 5672 5672 5671 5669 5668 5668 5669 5669 5669 5669 5668 5667 5667 5669 5673 5677 5680 5685 5689 5693 5697 5701 5704 5707 5712 5718 5723 5727 5731 5734
5705 5702 5697 5691 5689 5688 5687 5684 5681 5678 5676 5674 5672 5672 5672 5671 5669 5668 5667 5667 5666 5665 5663 5662 5660 5658 5658 5659 5660 5661 5665 5669 5673 5678 5683 5688 5691 5696 5701 5706 5711 5716 5721 5725
5705 5700 5694 5690 5687 5686 5685 5683 5681 5679 5677 5674 5671 5673 5670 5669 5668 5666 5664 5663 5662 5660 5658 5656 5653 5651 5651 5650 5651 5651 5651 5651 5655 5660 5668 5673 5680 5683 5690 5696 5701 5705 5710 5714
5705 5700 5693 5688 5686 5683 5682 5681 5679 5678 5676 5674 5671 5671 5668 5667 5666 5664 5662 5660 5658 5655 5653 5651 5647 5645 5645 5645 5643 5641 5637 5633 5635 5638 5649 5660 5667 5672 5678 5684 5690 5695 5700 5703
5703 5698 5692 5686 5682 5679 5678 5678 5677 5676 5675 5673 5671 5669 5668 5667 5664 5662 5659 5656 5652 5648 5645 5643 5641 5639 5637 5636 5633 5627 5616 5607 5606 5615 5627 5642 5654 5662 5669 5675 5681 5685 5690 5694
5703 5698 5691 5684 5680 5678 5676 5676 5675 5674 5673 5672 5670 5667 5665 5664 5662 5660 5657 5654 5650 5645 5641 5638 5635 5634 5632 5629 5626 5615 5605 5594 5593 5601 5612 5627 5640 5651 5661 5667 5672 5678 5682 5686
5702 5697 5691 5686 5680 5678 5676 5675 5674 5673 5673 5671 5669 5668 5666 5665 5662 5660 5656 5653 5651 5646 5640 5635 5633 5629 5626 5623 5620 5610 5599 5598 5599 5601 5610 5617 5631 5644 5654 5661 5667 5671 5675 5673
5703 5697 5692 5687 5681 5679 5678 5675 5674 5673 5672 5671 5670 5669 5667 5666 5663 5659 5656 5654 5652 5647 5641 5637 5633 5627 5622 5619 5617 5612 5605 5603 5602 5604 5609 5620 5629 5639 5650 5656 5661 5665 5667 5668
5702 5697 5692 5688 5684 5680 5678 5675 5673 5672 5671 5670 5669 5668 5667 5664 5662 5661 5659 5657 5655 5651 5649 5643 5637 5631 5623 5617 5613 5612 5608 5606 5605 5606 5611 5620 5628 5638 5647 5653 5656 5658 5659 5660
5702 5697 5692 5689 5685 5682 5677 5675 5673 5671 5670 5669 5668 5667 5667 5664 5662 5661 5660 5659 5655 5652 5649 5646 5641 5637 5632 5624 5616 5612 5609 5607 5606 5610 5616 5620 5627 5636 5643 5647 5649 5650 5651 5652
5701 5697 5693 5689 5685 5682 5679 5674 5670 5669 5668 5667 5666 5665 5664 5664 5662 5661 5659 5657 5654 5651 5648 5646 5643 5639 5635 5630 5624 5622 5617 5613 5612 5613 5619 5625 5628 5634 5638 5642 5643 5644 5645 5646
5700 5696 5692 5689 5685 5683 5680 5675 5670 5667 5669 5665 5664 5664 5663 5662 5661 5660 5658 5655 5653 5651 5648 5645 5643 5641 5638 5635 5631 5628 5626 5622 5622 5623 5623 5625 5629 5633 5636 5639 5640 5642 5642 5644
5699 5695 5692 5689 5686 5684 5679 5676 5673 5669 5664 5663 5663 5663 5663 5661 5659 5659 5657 5655 5653 5651 5648 5646 5644 5642 5640 5638 5635 5632 5631 5629 5630 5632 5633 5634 5635 5637 5639 5641 5643 5643 5643 5643
5696 5694 5691 5689 5687 5683 5680 5677 5674 5671 5667 5664 5662 5662 5661 5659 5657 5656 5656 5654 5651 5649 5648 5647 5646 5645 5643 5641 5639 5637 5635 5635 5636 5636 5636 5636 5637 5638 5640 5640 5640 5640 5640 5640
5692 5691 5689 5687 5686 5683 5681 5678 5675 5673 5670 5668 5666 5663 5661 5659 5656 5654 5653 5653 5652 5652 5651 5650 5649 5647 5645 5643 5641 5639 5638 5638 5639 5640 5640 5641 5642 5642 5642 5642 5642 5640 5639 5636
5686 5687 5686 5685 5683 5682 5680 5678 5676 5673 5671 5669 5667 5665 5663 5661 5660 5659 5657 5656 5655 5654 5653 5652 5651 5651 5649 5648 5646 5645 5645 5645 5644 5645 5645 5644 5644 5644 5643 5642 5641 5639 5637 5635
5680 5681 5682 5681 5680 5679 5678 5677 5676 5673 5671 5669 5668 5666 5665 5664 5662 5661 5659 5658 5657 5656 5656 5655 5654 5653 5652 5651 5649 5649 5648 5648 5648 5647 5647 5646 5645 5644 5643 5641 5639 5636 5633 5629
Wind_Speed
24 25 25 23 18 12 12 14 17 16 17 18 20 23 31 34 36 37 39 42 40 41 50 37 40 42 40 39 39 38 42 42 37 41 44 39 39 42 43 43 42 42 41 41
27 28 30 25 20 14 14 14 16 18 18 21 21 18 23 28 33 35 35 37 39 34 39 49 44 43 45 45 43 41 39 40 44 42 40 48 41 40 44 46 46 44 43 42
30 34 29 20 12 10 12 15 16 16 17 18 23 20 20 22 27 30 32 34 36 37 36 40 48 49 46 47 47 45 43 42 41 44 45 45 47 45 39 41 43 39 39 43
31 34 18 10 11 14 14 13 13 14 16 15 18 17 22 23 22 26 27 30 31 33 34 35 41 44 54 49 50 50 46 46 45 43 45 46 43 42 42 44 41 44 44 38
31 27 15 13 17 18 16 13 13 13 14 15 16 18 16 20 26 26 24 28 29 34 34 31 37 41 50 55 50 50 53 49 48 46 44 44 46 49 50 49 49 43 44 50
30 28 16 19 19 16 11 7 7 8 9 13 14 17 19 21 21 25 28 31 30 29 31 33 34 36 42 50 58 51 51 54 52 51 51 48 48 48 48 49 49 53 37 40
28 29 19 22 20 18 11 12 10 5 3 6 9 13 15 16 18 21 24 27 29 32 33 34 35 36 35 38 47 57 52 52 53 54 53 53 51 50 48 47 45 47 46 45
28 28 22 18 19 17 15 14 10 7 3 4 7 10 13 14 15 16 18 22 27 33 36 38 39 39 40 41 41 41 52 52 50 53 53 54 54 54 52 49 48 45 49 50
27 28 25 15 19 18 19 15 12 10 11 13 15 16 16 16 16 19 23 24 22 21 27 33 41 46 48 48 48 48 47 48 53 55 53 54 54 55 54 53 50 48 44 44
26 26 26 20 17 18 19 16 14 11 9 11 14 13 12 11 13 13 13 17 17 18 19 19 22 29 37 47 55 56 55 55 55 56 58 57 58 58 57 54 50 49 47 44
27 25 26 23 16 19 19 16 13 11 11 10 8 7 8 11 11 13 14 12 15 17 16 19 20 22 22 23 30 46 60 63 62 61 60 58 57 57 55 55 54 51 47 45
26 24 26 26 19 17 19 18 14 10 10 11 10 8 10 11 13 17 18 19 19 20 19 22 20 18 22 26 27 30 34 44 70 69 63 59 56 58 56 55 54 51 49 48
28 23 25 27 23 19 18 19 14 11 10 8 8 7 6 8 8 10 12 13 17 18 21 25 23 16 12 14 21 30 41 52 50 66 73 63 55 55 54 54 52 49 49 49
30 24 26 29 27 17 15 13 14 13 12 10 9 10 7 7 10 11 12 13 14 17 18 16 15 19 27 25 26 35 44 47 47 55 69 71 59 53 51 50 46 42 41 41
29 25 28 31 25 17 13 12 11 10 9 10 10 11 13 11 10 11 11 12 13 13 13 11 8 11 16 24 30 33 30 17 21 38 51 51 55 53 46 41 40 39 39 41
29 24 27 31 24 16 13 8 8 7 6 7 8 8 7 8 7 8 7 12 17 23 23 17 14 13 16 16 20 23 12 6 7 21 37 44 46 49 43 39 32 30 36 43
27 24 24 28 27 15 12 8 6 7 5 6 6 7 7 7 7 15 17 19 20 27 29 31 33 25 18 13 14 13 9 7 8 15 26 35 30 35 38 34 31 29 33 34
23 26 26 24 24 15 13 10 5 5 7 7 8 9 7 4 8 11 12 16 17 19 19 20 25 28 27 16 17 9 6 1 5 13 21 25 21 23 26 30 30 32 35 37
20 23 24 24 19 19 15 13 9 7 6 5 4 5 3 4 5 8 9 10 12 13 15 14 12 16 23 22 11 5 8 7 10 13 16 24 24 20 24 26 22 23 24 26
17 19 23 25 22 16 18 17 13 15 9 7 5 5 3 1 3 4 4 6 9 12 14 15 11 11 11 16 22 28 27 28 16 16 12 10 14 13 11 15 15 18 22 25
14 15 19 22 23 17 14 17 17 11 10 8 5 6 6 5 3 2 3 6 8 12 17 18 13 11 13 18 19 22 24 29 29 30 31 25 15 8 7 6 8 4 5 8
14 12 14 18 21 19 14 12 15 15 9 8 6 5 6 7 6 7 8 9 12 15 16 12 12 14 16 17 18 20 21 23 21 19 18 16 15 13 11 8 5 6 7 9
15 12 11 13 15 19 17 11 11 14 18 14 4 9 10 12 13 12 12 13 11 6 10 11 11 11 12 13 13 15 16 16 15 14 15 15 13 11 9 9 9 8 8 10
16 14 11 10 12 14 17 15 8 8 7 11 13 14 14 11 7 2 5 11 15 16 14 12 11 10 11 13 14 16 18 20 22 24 24 24 22 20 18 17 15 15 16 18
22 18 14 11 10 10 12 14 12 8 6 7 8 8 9 9 11 12 13 13 12 11 11 13 17 21 24 24 24 24 23 21 19 18 17 17 17 16 16 17 17 16 16 18
24 22 17 14 13 11 9 10 11 9 7 5 6 7 7 7 7 7 8 10 10 12 15 18 19 19 20 20 19 18 17 16 15 16 15 15 14 13 15 17 18 19 20 22
Wind_Direction
347 342 339 331 329 304 290 275 262 240 229 238 243 234 237 235 238 241 240 242 249 235 223 221 225 233 234 237 235 236 236 234 234 240 230 236 236 236 239 243 243 246 249 252
342 341 336 324 313 299 280 274 265 259 239 231 241 241 234 235 234 237 242 244 251 251 239 220 221 227 231 232 233 236 238 239 239 239 239 229 235 238 239 241 242 244 247 251
343 342 332 322 315 310 293 277 265 255 248 237 236 232 236 237 237 236 239 243 245 250 243 238 224 226 230 231 236 234 234 236 237 236 240 243 227 236 239 248 249 251 253 252
349 350 4 7 356 341 328 322 306 274 251 240 238 233 231 235 241 240 240 241 245 255 250 241 237 233 227 234 233 235 237 238 236 237 236 241 238 248 245 256 257 249 249 259
355 360 15 5 344 335 322 303 295 285 263 241 236 238 229 233 236 241 243 242 241 253 255 248 241 239 231 229 233 236 237 237 242 242 239 238 240 244 247 250 249 252 249 253
356 360 358 357 356 357 342 348 309 291 262 241 228 232 233 232 237 239 243 250 254 253 256 258 255 246 240 234 232 234 234 238 238 239 241 238 239 241 242 245 250 252 258 252
356 358 353 359 357 2 19 20 8 359 216 238 232 231 236 238 239 244 248 250 253 256 255 253 255 257 254 245 238 233 235 236 238 240 240 243 242 240 242 242 245 249 251 258
354 360 355 351 348 347 343 326 321 320 309 263 224 246 253 255 257 262 253 249 246 249 253 254 254 254 252 251 248 246 240 239 240 240 243 243 245 247 246 245 246 248 244 259
349 356 2 345 338 338 345 354 348 314 281 270 264 267 267 264 267 272 271 269 256 254 252 251 255 255 251 251 251 247 243 241 245 244 242 242 244 248 249 249 250 252 252 254
350 355 1 353 326 326 335 343 349 349 324 288 278 275 277 279 281 286 264 240 244 255 259 259 262 265 260 258 254 250 248 242 239 241 244 244 243 242 243 247 247 251 253 256
348 349 355 357 323 313 318 338 339 340 333 328 317 285 272 272 279 276 261 250 252 261 274 270 272 262 261 267 267 257 250 249 244 238 238 241 243 244 245 245 246 247 250 253
348 346 357 352 338 305 297 314 328 338 321 320 317 269 275 280 285 279 278 276 286 278 273 291 291 283 284 280 287 282 258 250 248 245 238 236 240 243 243 245 245 247 248 250
354 344 353 353 334 305 294 293 306 328 335 321 308 279 286 292 294 295 294 295 291 282 271 272 282 247 281 286 294 286 273 269 259 241 238 235 235 238 241 243 245 246 249 251
353 345 352 354 343 315 303 300 298 308 323 316 307 317 313 298 295 308 321 326 311 294 294 280 283 269 274 281 298 301 286 277 254 232 229 230 231 234 237 241 243 243 247 251
353 346 350 354 348 336 319 303 307 298 313 319 311 309 328 332 338 344 340 335 336 333 317 321 324 310 302 277 292 296 307 298 248 222 216 217 223 229 232 237 243 246 250 256
353 350 348 353 347 339 329 312 321 310 305 333 321 322 334 343 357 336 2 36 33 37 37 14 338 330 325 312 319 327 341 342 247 218 216 210 214 224 229 236 244 252 241 251
352 353 351 353 353 341 334 323 319 309 310 310 329 333 329 348 16 50 54 50 53 44 40 37 37 24 351 326 317 330 353 292 236 213 209 211 208 217 227 238 250 258 268 274
352 354 352 354 356 345 327 325 319 301 297 295 315 324 318 301 33 60 69 66 67 53 52 54 41 33 25 346 284 301 62 149 193 191 189 195 195 217 232 241 258 261 265 266
345 352 356 351 352 351 341 307 307 309 303 290 297 297 308 51 78 75 70 68 59 54 42 37 36 51 61 61 34 304 292 237 160 159 180 185 192 218 238 254 265 264 267 265
336 348 358 354 354 348 356 351 298 278 279 267 253 233 228 232 133 111 76 35 23 17 13 14 13 33 43 51 61 63 67 80 106 205 181 188 192 187 208 241 248 259 269 272
324 344 354 356 355 351 351 360 356 336 286 264 243 222 214 208 197 288 346 349 347 348 349 353 9 20 38 52 64 66 69 68 60 58 63 76 85 110 176 111 51 22 20 341
307 327 342 350 358 352 348 359 16 15 3 254 253 256 259 265 273 285 299 316 328 332 337 10 40 47 55 58 61 61 58 58 60 62 65 65 62 58 51 40 13 349 324 311
293 309 326 342 352 357 352 341 1 42 43 39 276 260 269 279 278 278 287 303 321 16 72 75 65 56 50 51 50 51 50 50 51 50 46 46 50 50 41 32 30 24 17 13
271 289 300 314 337 354 357 353 348 12 14 31 45 58 56 58 38 7 118 101 87 78 73 69 59 49 46 50 53 55 57 62 68 71 72 71 68 62 50 37 27 18 9 358
256 271 280 286 297 329 350 360 359 344 357 14 19 33 37 49 57 68 78 85 86 83 81 79 83 85 81 77 76 74 73 72 71 66 62 55 56 50 38 26 18 5 353 350
250 253 267 269 276 286 310 338 0 7 359 354 5 16 25 37 43 49 68 85 88 94 102 101 97 90 79 73 71 70 68 65 64 61 49 40 32 19 5 356 351 344 343 345